Stündliche Wetter Bolshie Klyuchi

Heute, 6 Dezember, Sonntag

Zeit Temperatur Niederschläge Wind Luftdruck Luftfeuchtigkeit
00:00 -10°C° 0 mm 1 m/S 758 mmHg 91%
01:00 -10°C° 0 mm 1 m/S 758 mmHg 92%
02:00 -11°C° 0 mm 1 m/S 758 mmHg 92%
03:00 -11°C° 0 mm 0 m/S 758 mmHg 92%
04:00 -11°C° 0 mm 1 m/S 758 mmHg 92%
05:00 -11°C° 0 mm 1 m/S 757 mmHg 92%
06:00 -11°C° 0 mm 1 m/S 757 mmHg 92%
07:00 -10°C° 0 mm 1 m/S 757 mmHg 90%
08:00 -10°C° 0 mm 1 m/S 757 mmHg 88%
09:00 -9°C° 0 mm 1 m/S 757 mmHg 85%
10:00 -7°C° 0 mm 1 m/S 756 mmHg 79%
11:00 -6°C° 0 mm 1 m/S 756 mmHg 74%
12:00 -3°C° 0 mm 1 m/S 756 mmHg 68%
13:00 -3°C° 0 mm 1 m/S 755 mmHg 68%
14:00 -3°C° 0 mm 1 m/S 755 mmHg 69%
15:00 -4°C° 0 mm 0 m/S 754 mmHg 70%
16:00 -5°C° 0 mm 0 m/S 754 mmHg 74%
17:00 -6°C° 0 mm 0 m/S 754 mmHg 78%
18:00 -7°C° 0 mm 0 m/S 754 mmHg 82%
19:00 -8°C° 0 mm 0 m/S 754 mmHg 84%
20:00 -8°C° 0 mm 1 m/S 754 mmHg 85%
21:00 -8°C° 0 mm 1 m/S 754 mmHg 86%
22:00 -9°C° 0 mm 1 m/S 754 mmHg 87%
23:00 -9°C° 0 mm 1 m/S 754 mmHg 88%

Morgen, 7 Dezember, Montag

Zeit Temperatur Niederschläge Wind Luftdruck Luftfeuchtigkeit
00:00 -9°C° 0 mm 1 m/S 754 mmHg 88%
01:00 -9°C° 0 mm 1 m/S 754 mmHg 90%
02:00 -9°C° 0 mm 1 m/S 754 mmHg 93%
03:00 -9°C° 0 mm 1 m/S 754 mmHg 95%
04:00 -9°C° 0 mm 1 m/S 754 mmHg 94%
05:00 -10°C° 0 mm 2 m/S 754 mmHg 94%
06:00 -12°C° 0 mm 2 m/S 754 mmHg 94%
07:00 -12°C° 0 mm 2 m/S 755 mmHg 92%
08:00 -12°C° 0 mm 2 m/S 755 mmHg 90%
09:00 -12°C° 0 mm 2 m/S 755 mmHg 88%
10:00 -12°C° 0.1 mm 2 m/S 755 mmHg 85%
11:00 -10°C° 0.1 mm 2 m/S 755 mmHg 82%
12:00 -9°C° 0.1 mm 2 m/S 755 mmHg 79%
13:00 -9°C° 0 mm 2 m/S 755 mmHg 80%
14:00 -9°C° 0 mm 2 m/S 755 mmHg 81%
15:00 -9°C° 0 mm 2 m/S 754 mmHg 82%
16:00 -10°C° 0 mm 2 m/S 755 mmHg 86%
17:00 -10°C° 0 mm 1 m/S 755 mmHg 90%
18:00 -10°C° 0 mm 1 m/S 755 mmHg 94%
19:00 -10°C° 0.1 mm 1 m/S 755 mmHg 94%
20:00 -11°C° 0.1 mm 1 m/S 756 mmHg 94%
21:00 -11°C° 0.1 mm 1 m/S 756 mmHg 94%
22:00 -12°C° 0 mm 1 m/S 756 mmHg 94%
23:00 -12°C° 0 mm 1 m/S 756 mmHg 93%

übermorgen, 8 Dezember, Dienstag

Zeit Temperatur Niederschläge Wind Luftdruck Luftfeuchtigkeit
00:00 -13°C° 0 mm 1 m/S 756 mmHg 93%
01:00 -13°C° 0 mm 1 m/S 756 mmHg 92%
02:00 -13°C° 0 mm 1 m/S 756 mmHg 92%
03:00 -13°C° 0 mm 1 m/S 756 mmHg 91%
04:00 -14°C° 0 mm 1 m/S 756 mmHg 92%
05:00 -14°C° 0 mm 1 m/S 757 mmHg 92%
06:00 -14°C° 0 mm 1 m/S 757 mmHg 93%
07:00 -13°C° 0 mm 1 m/S 757 mmHg 89%
08:00 -12°C° 0 mm 1 m/S 757 mmHg 86%
09:00 -12°C° 0 mm 1 m/S 757 mmHg 82%
10:00 -10°C° 0 mm 1 m/S 757 mmHg 77%
11:00 -10°C° 0 mm 2 m/S 757 mmHg 71%
12:00 -9°C° 0 mm 2 m/S 757 mmHg 65%
13:00 -9°C° 0 mm 2 m/S 757 mmHg 66%
14:00 -9°C° 0 mm 2 m/S 757 mmHg 67%
15:00 -9°C° 0 mm 2 m/S 756 mmHg 68%
16:00 -9°C° 0 mm 1 m/S 757 mmHg 74%
17:00 -10°C° 0 mm 1 m/S 757 mmHg 79%
18:00 -12°C° 0 mm 0 m/S 757 mmHg 85%
19:00 -12°C° 0 mm 0 m/S 757 mmHg 85%
20:00 -12°C° 0 mm 1 m/S 757 mmHg 85%
21:00 -12°C° 0 mm 1 m/S 757 mmHg 85%
22:00 -12°C° 0 mm 1 m/S 757 mmHg 86%
23:00 -12°C° 0 mm 1 m/S 757 mmHg 86%

9 Dezember, Mittwoch

Zeit Temperatur Niederschläge Wind Luftdruck Luftfeuchtigkeit
00:00 -13°C° 0 mm 1 m/S 757 mmHg 87%
01:00 -13°C° 0 mm 1 m/S 756 mmHg 87%
02:00 -13°C° 0 mm 1 m/S 756 mmHg 87%
03:00 -13°C° 0 mm 1 m/S 756 mmHg 87%
04:00 -13°C° 0 mm 1 m/S 756 mmHg 87%
05:00 -13°C° 0 mm 1 m/S 756 mmHg 87%
06:00 -13°C° 0 mm 1 m/S 756 mmHg 87%
07:00 -13°C° 0 mm 1 m/S 756 mmHg 85%
08:00 -12°C° 0 mm 1 m/S 756 mmHg 83%
09:00 -11°C° 0 mm 1 m/S 756 mmHg 80%
10:00 -9°C° 0 mm 1 m/S 755 mmHg 74%
11:00 -8°C° 0 mm 1 m/S 755 mmHg 68%
12:00 -6°C° 0 mm 1 m/S 754 mmHg 61%
13:00 -6°C° 0 mm 1 m/S 754 mmHg 62%
14:00 -6°C° 0 mm 1 m/S 754 mmHg 62%
15:00 -4°C° 0 mm 1 m/S 754 mmHg 63%
16:00 -7°C° 0 mm 1 m/S 754 mmHg 68%
17:00 -8°C° 0 mm 1 m/S 754 mmHg 72%
18:00 -10°C° 0 mm 0 m/S 754 mmHg 77%
19:00 -10°C° 0 mm 1 m/S 754 mmHg 78%
20:00 -10°C° 0 mm 1 m/S 754 mmHg 78%
21:00 -10°C° 0 mm 1 m/S 754 mmHg 78%
22:00 -10°C° 0 mm 1 m/S 754 mmHg 79%
23:00 -10°C° 0 mm 1 m/S 754 mmHg 81%

10 Dezember, Donnerstag

Zeit Temperatur Niederschläge Wind Luftdruck Luftfeuchtigkeit
00:00 -11°C° 0 mm 1 m/S 754 mmHg 82%
01:00 -11°C° 0 mm 1 m/S 754 mmHg 83%
02:00 -11°C° 0 mm 1 m/S 754 mmHg 84%
03:00 -11°C° 0 mm 1 m/S 754 mmHg 85%
04:00 -11°C° 0 mm 1 m/S 754 mmHg 85%
05:00 -11°C° 0 mm 1 m/S 754 mmHg 86%
06:00 -11°C° 0 mm 1 m/S 754 mmHg 86%
07:00 -10°C° 0 mm 1 m/S 754 mmHg 84%
08:00 -10°C° 0 mm 1 m/S 753 mmHg 81%
09:00 -9°C° 0 mm 1 m/S 753 mmHg 79%
10:00 -7°C° 0 mm 1 m/S 753 mmHg 74%
11:00 -4°C° 0 mm 1 m/S 753 mmHg 70%
12:00 -2°C° 0 mm 1 m/S 752 mmHg 65%
13:00 -2°C° 0 mm 1 m/S 752 mmHg 69%
14:00 -2°C° 0 mm 1 m/S 752 mmHg 72%
15:00 -2°C° 0 mm 1 m/S 751 mmHg 75%
16:00 -3°C° 0 mm 1 m/S 751 mmHg 79%
17:00 -5°C° 0 mm 0 m/S 751 mmHg 83%
18:00 -7°C° 0 mm 0 m/S 751 mmHg 87%
19:00 -7°C° 0 mm 1 m/S 752 mmHg 88%
20:00 -6°C° 0 mm 1 m/S 752 mmHg 90%
21:00 -6°C° 0 mm 1 m/S 752 mmHg 92%
22:00 -7°C° 0 mm 1 m/S 752 mmHg 92%
23:00 -7°C° 0 mm 1 m/S 751 mmHg 92%

11 Dezember, Freitag

Zeit Temperatur Niederschläge Wind Luftdruck Luftfeuchtigkeit
00:00 -7°C° 0 mm 1 m/S 751 mmHg 93%
01:00 -7°C° 0 mm 1 m/S 751 mmHg 93%
02:00 -8°C° 0 mm 1 m/S 751 mmHg 94%
03:00 -8°C° 0 mm 0 m/S 751 mmHg 94%
04:00 -9°C° 0 mm 0 m/S 751 mmHg 94%
05:00 -9°C° 0 mm 0 m/S 751 mmHg 94%
06:00 -9°C° 0 mm 0 m/S 751 mmHg 94%
07:00 -9°C° 0 mm 1 m/S 751 mmHg 93%
08:00 -8°C° 0 mm 1 m/S 751 mmHg 91%
09:00 -8°C° 0 mm 1 m/S 752 mmHg 90%
10:00 -8°C° 0 mm 1 m/S 752 mmHg 84%
11:00 -8°C° 0 mm 2 m/S 752 mmHg 78%
12:00 -8°C° 0 mm 2 m/S 751 mmHg 72%
13:00 -8°C° 0 mm 2 m/S 752 mmHg 73%
14:00 -9°C° 0 mm 2 m/S 752 mmHg 74%
15:00 -9°C° 0 mm 2 m/S 752 mmHg 75%
16:00 -10°C° 0 mm 2 m/S 753 mmHg 80%
17:00 -10°C° 0 mm 1 m/S 753 mmHg 86%
18:00 -11°C° 0 mm 1 m/S 754 mmHg 91%
19:00 -12°C° 0 mm 1 m/S 754 mmHg 92%
20:00 -12°C° 0 mm 1 m/S 754 mmHg 92%
21:00 -12°C° 0 mm 1 m/S 755 mmHg 92%
22:00 -13°C° 0 mm 1 m/S 755 mmHg 92%
23:00 -13°C° 0 mm 1 m/S 755 mmHg 91%
Mehr zeigen

Wir brauchen deine Erlaubnis

Meteoprog und unser Service Anbieter werden persönliche Daten aufbewahren, so wie Cookies, Geräte Bezeichnung oder ähnliche Technologien von deinem Gerät und Prozess, so wie Persönliche Daten Inhalte und Werbungen, genauso wie social Media und den Verkehr zu analysieren.

  • Aufbewahrung und/oder Zugang zu deiner Geräte Informationen.

    Cookies, Geräte Bezeichnung oder andere Informationen, können aufbewahrt oder Zugang zu deinem Gerät erhalten, für den Grund, der oben angegeben wird.

  • Personalisierte Werbung und Inhalte, Messungen, Einblick in das Publikum und Produkt Entwicklung.

    Werbungen und Inhalte können personalisiert werden, basierend auf ein Profil. Mehr Daten können besser personalisierte Werbungen und Inhalte hinzufügen. Werbung und Inhalte können gezeigt und gemessen werden. Einblicke über das Publikum, welche die Werbung gesehen haben und den Inhalt, können abgeleitet werden. So wie Daten können genutzt werden, um es zu verbessern oder die Benutzer Erfahrung zu verbessern das System und die Software.

Wenn du “Ich stimme zu” klickst, erlaubst du uns, die Cookies zu benutzen die Geräte Bezeichnung, den Web oder ähnliche Technologien zu benutzen. Deine Settings, können in deinem Gerät bei deinem Browser geändert werden.

Für den bestimmten Zweck, berechtigten Interessen beruhen darauf, mehr als auf den Inhalt. Du kannst mehr darüber in unseren Privaten und Cookie Politik lesen.